User: anonymous   Login
Location: Montreal
(45.5000°N, 73.5833°W)
Time: 21:01:47
(UTC-04:00)
Language:

Envisat - Orbit

View from above orbital plane
View from above orbital plane
View from above satellite
View from above satellite

Ground track
Ground track

The orbit data is extracted from the following two-line orbital elements,

1 27386U 02009A   18266.70868366 +.00000002 +00000-0 +14353-4 0  9996
2 27386 098.1773 296.0875 0001219 088.9979 021.1045 14.37930132867684
Epoch (UTC): 23 September 2018 17:00:30
Eccentricity: 0.0001219
inclination: 98.1773°
perigee height: 764 km
apogee height: 766 km
right ascension of ascending node: 296.0875°
argument of perigee: 88.9979°
revolutions per day: 14.37930132
mean anomaly at epoch: 21.1045°
orbit number at epoch: 86768

The dashed part of the orbit path shows where the satellite is in the earth's shadow,  

DLR